AUA21C LOWW-EDDF

Flight info

Callsign AUA21C
Flight time 1h 1m
Altitude 30000
Route LUGEM2B/16 LUGEM DCT SUBEN T161 DEBHI DEBHI1B
Aircraft B772/H-SDE2E3FGHIJ5LORVWXY/LB1D1

Departure

Time 2026-05-04 19:00
Airport Vienna International Airport (LOWW)

Arrival

Time 2026-05-04 20:02
Airport Frankfurt Main Airport (EDDF)
Time Latitude Longitude Altitude Speed Heading
2026-05-04 18:04 48.11626 16.56581 612 ft 0 kts 205°
2026-05-04 18:53 48.11590 16.56557 620 ft 12 kts 199°
2026-05-04 18:53 48.11523 16.56599 623 ft 11 kts 126°
2026-05-04 18:53 48.11491 16.56699 625 ft 11 kts 116°
2026-05-04 18:54 48.11458 16.56798 625 ft 11 kts 117°
2026-05-04 18:54 48.11420 16.56921 629 ft 15 kts 115°
2026-05-04 18:54 48.11373 16.57057 632 ft 15 kts 116°
2026-05-04 18:54 48.11335 16.57172 630 ft 9 kts 117°
2026-05-04 18:55 48.11308 16.57259 632 ft 9 kts 115°
2026-05-04 18:55 48.11396 16.57389 627 ft 13 kts 25°
2026-05-04 18:55 48.11485 16.57453 620 ft 15 kts 20°
2026-05-04 18:56 48.11591 16.57438 619 ft 15 kts 346°
2026-05-04 18:56 48.11693 16.57394 623 ft 14 kts 344°
2026-05-04 18:56 48.11786 16.57354 618 ft 15 kts 343°
2026-05-04 18:56 48.11889 16.57309 615 ft 16 kts 345°
2026-05-04 18:57 48.11960 16.57288 609 ft 8 kts
2026-05-04 18:57 48.11993 16.57351 619 ft 8 kts 71°
2026-05-04 18:57 48.12011 16.57432 621 ft 8 kts 72°
2026-05-04 18:57 48.12013 16.57473 604 ft 0 kts 97°
2026-05-04 18:58 48.12012 16.57486 603 ft 4 kts 97°
2026-05-04 18:58 48.12005 16.57543 603 ft 7 kts 105°
2026-05-04 18:59 48.11991 16.57616 601 ft 8 kts 104°
2026-05-04 18:59 48.11977 16.57702 601 ft 9 kts 104°
2026-05-04 18:59 48.11964 16.57785 602 ft 6 kts 100°
2026-05-04 18:59 48.11940 16.57834 616 ft 6 kts 157°
2026-05-04 19:00 48.11861 16.57869 620 ft 26 kts 165°
2026-05-04 19:00 48.11420 16.58055 621 ft 109 kts 164°
2026-05-04 19:00 48.10473 16.58472 797 ft 162 kts 165°
2026-05-04 19:00 48.09423 16.58886 1868 ft 147 kts 165°
2026-05-04 19:01 48.08455 16.59372 2839 ft 152 kts 169°
2026-05-04 19:01 48.07312 16.59827 3152 ft 190 kts 169°
2026-05-04 19:01 48.05944 16.60257 3381 ft 213 kts 184°
2026-05-04 19:01 48.04523 16.59502 3922 ft 221 kts 220°
2026-05-04 19:02 48.03604 16.57650 4767 ft 229 kts 238°
2026-05-04 19:02 48.02743 16.55500 5132 ft 248 kts 241°
2026-05-04 19:02 48.02367 16.52913 5670 ft 265 kts 270°
2026-05-04 19:02 48.02466 16.50139 6423 ft 267 kts 270°
2026-05-04 19:03 48.02527 16.47400 7345 ft 262 kts 269°
2026-05-04 19:03 48.02583 16.44683 8209 ft 262 kts 269°
2026-05-04 19:03 48.02621 16.41979 9086 ft 259 kts 267°
2026-05-04 19:03 48.02626 16.39275 9803 ft 265 kts 267°
2026-05-04 19:04 48.02622 16.36467 10252 ft 276 kts 269°
2026-05-04 19:04 48.02877 16.33465 10323 ft 306 kts 279°
2026-05-04 19:04 48.03340 16.30259 10675 ft 323 kts 280°
2026-05-04 19:04 48.03825 16.26934 11351 ft 332 kts 279°
2026-05-04 19:05 48.04306 16.23540 12313 ft 335 kts 279°
2026-05-04 19:05 48.04779 16.20122 13425 ft 337 kts 279°
2026-05-04 19:05 48.05245 16.16662 14372 ft 342 kts 278°
2026-05-04 19:05 48.05705 16.13159 15325 ft 345 kts 278°
2026-05-04 19:06 48.06166 16.09614 16245 ft 350 kts 278°
2026-05-04 19:06 48.06629 16.06032 17191 ft 354 kts 278°
2026-05-04 19:06 48.07096 16.02399 18120 ft 358 kts 278°
2026-05-04 19:06 48.07567 15.98722 18900 ft 362 kts 279°
2026-05-04 19:07 48.08044 15.94994 19667 ft 367 kts 279°
2026-05-04 19:07 48.08524 15.91230 20397 ft 372 kts 279°
2026-05-04 19:07 48.09016 15.87411 21163 ft 374 kts 280°
2026-05-04 19:07 48.09611 15.83611 21993 ft 376 kts 283°
2026-05-04 19:08 48.10274 15.79791 22656 ft 383 kts 284°
2026-05-04 19:08 48.10964 15.75907 23358 ft 388 kts 284°
2026-05-04 19:08 48.11656 15.71973 23924 ft 394 kts 284°
2026-05-04 19:08 48.12345 15.68002 24635 ft 395 kts 284°
2026-05-04 19:09 48.13028 15.64014 25268 ft 397 kts 284°
2026-05-04 19:09 48.13712 15.59982 25890 ft 400 kts 284°
2026-05-04 19:09 48.14161 15.57322 26454 ft 398 kts 284°
2026-05-04 19:09 48.15061 15.51976 27634 ft 394 kts 283°
2026-05-04 19:10 48.15503 15.49345 28147 ft 394 kts 283°
2026-05-04 19:10 48.16171 15.45367 28962 ft 393 kts 283°
2026-05-04 19:10 48.16834 15.41397 29739 ft 393 kts 283°
2026-05-04 19:10 48.17488 15.37423 29927 ft 394 kts 282°
2026-05-04 19:11 48.18636 15.29226 29935 ft 415 kts 281°
2026-05-04 19:11 48.19206 15.24913 29930 ft 428 kts 281°
2026-05-04 19:11 48.19795 15.20457 29928 ft 441 kts 281°
2026-05-04 19:12 48.20401 15.15897 29929 ft 452 kts 281°
2026-05-04 19:12 48.21659 15.06519 29925 ft 471 kts 281°
2026-05-04 19:13 48.22972 14.96748 29912 ft 484 kts 281°
2026-05-04 19:13 48.24301 14.86827 29896 ft 484 kts 281°
2026-05-04 19:14 48.25615 14.76938 29898 ft 483 kts 280°
2026-05-04 19:14 48.26918 14.67051 29894 ft 483 kts 280°
2026-05-04 19:15 48.28214 14.57142 29890 ft 484 kts 280°
2026-05-04 19:15 48.29502 14.47226 29890 ft 484 kts 280°
2026-05-04 19:16 48.30783 14.37300 29885 ft 484 kts 280°
2026-05-04 19:16 48.32054 14.27372 29892 ft 484 kts 279°
2026-05-04 19:17 48.33316 14.17446 29889 ft 484 kts 279°
2026-05-04 19:17 48.34570 14.07508 29890 ft 484 kts 279°
2026-05-04 19:18 48.35816 13.97562 29897 ft 484 kts 279°
2026-05-04 19:18 48.37052 13.87626 29903 ft 484 kts 279°
2026-05-04 19:19 48.38283 13.77652 29887 ft 486 kts 279°
2026-05-04 19:19 48.39509 13.67643 29892 ft 487 kts 279°
2026-05-04 19:20 48.40730 13.57612 29888 ft 487 kts 279°
2026-05-04 19:20 48.41946 13.47580 29901 ft 487 kts 279°
2026-05-04 19:21 48.43711 13.37739 29890 ft 487 kts 285°
2026-05-04 19:21 48.45723 13.28005 29896 ft 487 kts 285°
2026-05-04 19:22 48.47703 13.18253 29901 ft 487 kts 285°
2026-05-04 19:22 48.49639 13.08478 29892 ft 487 kts 284°
2026-05-04 19:23 48.51538 12.98769 29899 ft 485 kts 284°
2026-05-04 19:23 48.53430 12.89038 29892 ft 483 kts 284°
2026-05-04 19:24 48.55311 12.79329 29901 ft 482 kts 284°
2026-05-04 19:24 48.57187 12.69598 29900 ft 483 kts 284°
2026-05-04 19:25 48.59057 12.59849 29902 ft 484 kts 284°
2026-05-04 19:25 48.60922 12.50082 29911 ft 484 kts 284°
2026-05-04 19:26 48.62779 12.40303 29911 ft 484 kts 284°
2026-05-04 19:26 48.64625 12.30533 29917 ft 483 kts 284°
2026-05-04 19:27 48.66459 12.20772 29923 ft 482 kts 284°
2026-05-04 19:27 48.68279 12.11035 29912 ft 480 kts 284°
2026-05-04 19:28 48.70088 12.01306 29917 ft 480 kts 284°
2026-05-04 19:28 48.71888 11.91575 29934 ft 480 kts 284°
2026-05-04 19:29 48.73682 11.81826 29945 ft 481 kts 284°
2026-05-04 19:29 48.75469 11.72061 29941 ft 481 kts 284°
2026-05-04 19:30 48.77252 11.62271 29935 ft 481 kts 283°
2026-05-04 19:30 48.79022 11.52495 29939 ft 481 kts 283°
2026-05-04 19:31 48.80782 11.42719 29941 ft 481 kts 283°
2026-05-04 19:31 48.82538 11.32926 29938 ft 480 kts 283°
2026-05-04 19:32 48.84869 11.23427 29922 ft 485 kts 297°
2026-05-04 19:32 48.88968 11.15356 29938 ft 491 kts 314°
2026-05-04 19:33 48.94132 11.08522 29947 ft 492 kts 315°
2026-05-04 19:33 48.99188 11.01489 29974 ft 493 kts 314°
2026-05-04 19:34 49.04216 10.94351 29987 ft 495 kts 314°
2026-05-04 19:34 49.09272 10.87203 29978 ft 495 kts 314°
2026-05-04 19:35 49.14272 10.80152 29764 ft 482 kts 314°
2026-05-04 19:35 49.16724 10.76685 29516 ft 480 kts 314°
2026-05-04 19:35 49.19172 10.73215 29192 ft 479 kts 314°
2026-05-04 19:35 49.21576 10.69708 28708 ft 476 kts 312°
2026-05-04 19:36 49.23889 10.66077 28042 ft 477 kts 310°
2026-05-04 19:36 49.26156 10.62418 27391 ft 470 kts 310°
2026-05-04 19:36 49.28394 10.58813 26533 ft 465 kts 310°
2026-05-04 19:36 49.30624 10.55274 25740 ft 459 kts 311°
2026-05-04 19:37 49.32835 10.51780 24986 ft 453 kts 311°
2026-05-04 19:37 49.35007 10.48336 24424 ft 447 kts 310°
2026-05-04 19:37 49.37047 10.44705 24202 ft 448 kts 304°
2026-05-04 19:37 49.38834 10.40828 24015 ft 443 kts 301°
2026-05-04 19:38 49.40573 10.36936 23958 ft 441 kts 301°
2026-05-04 19:38 49.42307 10.33064 23955 ft 440 kts 301°
2026-05-04 19:38 49.44050 10.29193 23993 ft 441 kts 302°
2026-05-04 19:38 49.45805 10.25315 23984 ft 442 kts 302°
2026-05-04 19:39 49.47561 10.21441 23982 ft 441 kts 302°
2026-05-04 19:39 49.49303 10.17603 23970 ft 429 kts 302°
2026-05-04 19:39 49.50953 10.13973 23947 ft 395 kts 301°
2026-05-04 19:39 49.52468 10.10634 23957 ft 371 kts 301°
2026-05-04 19:40 49.53940 10.07365 23803 ft 371 kts 301°
2026-05-04 19:40 49.55396 10.04130 23619 ft 364 kts 301°
2026-05-04 19:40 49.56812 10.00983 23201 ft 361 kts 301°
2026-05-04 19:40 49.58259 9.97767 22705 ft 360 kts 301°
2026-05-04 19:41 49.59666 9.94636 22239 ft 359 kts 301°
2026-05-04 19:41 49.61082 9.91483 21813 ft 357 kts 301°
2026-05-04 19:41 49.62493 9.88337 21370 ft 356 kts 301°
2026-05-04 19:41 49.63893 9.85210 20973 ft 354 kts 301°
2026-05-04 19:42 49.65287 9.82094 20558 ft 352 kts 301°
2026-05-04 19:42 49.66672 9.78995 20142 ft 350 kts 301°
2026-05-04 19:42 49.68050 9.75905 19763 ft 348 kts 301°
2026-05-04 19:42 49.69401 9.72878 19775 ft 338 kts 301°
2026-05-04 19:43 49.70742 9.69866 19774 ft 345 kts 301°
2026-05-04 19:43 49.72113 9.66779 19783 ft 350 kts 301°
2026-05-04 19:43 49.73487 9.63672 19756 ft 348 kts 301°
2026-05-04 19:43 49.74950 9.60634 19454 ft 356 kts 307°
2026-05-04 19:44 49.76746 9.58053 19406 ft 354 kts 323°
2026-05-04 19:44 49.78965 9.56377 19191 ft 358 kts 338°
2026-05-04 19:44 49.81355 9.55251 18969 ft 358 kts 342°
2026-05-04 19:44 49.83758 9.54272 18737 ft 356 kts 343°
2026-05-04 19:45 49.86159 9.53343 18507 ft 356 kts 343°
2026-05-04 19:45 49.88570 9.52419 18111 ft 359 kts 343°
2026-05-04 19:45 49.91030 9.51477 17342 ft 369 kts 343°
2026-05-04 19:45 49.93541 9.50514 16571 ft 370 kts 343°
2026-05-04 19:46 49.95973 9.49587 15788 ft 351 kts 343°
2026-05-04 19:46 49.98275 9.48718 15184 ft 330 kts 343°
2026-05-04 19:46 50.00436 9.47913 14734 ft 309 kts 343°
2026-05-04 19:46 50.02468 9.47166 14324 ft 292 kts 343°
2026-05-04 19:47 50.04404 9.46461 13871 ft 282 kts 343°
2026-05-04 19:47 50.06313 9.45776 13101 ft 281 kts 343°
2026-05-04 19:47 50.08201 9.45100 12432 ft 276 kts 344°
2026-05-04 19:47 50.10057 9.44436 11745 ft 272 kts 344°
2026-05-04 19:48 50.11892 9.43772 11074 ft 270 kts 344°
2026-05-04 19:48 50.13710 9.43106 10429 ft 267 kts 344°
2026-05-04 19:48 50.15493 9.42450 9842 ft 260 kts 344°
2026-05-04 19:48 50.17251 9.41793 9044 ft 260 kts 344°
2026-05-04 19:49 50.19005 9.41126 8312 ft 258 kts 344°
2026-05-04 19:49 50.20737 9.40455 7625 ft 255 kts 344°
2026-05-04 19:49 50.22456 9.39772 7251 ft 257 kts 344°
2026-05-04 19:49 50.24194 9.39070 7087 ft 260 kts 343°
2026-05-04 19:50 50.25916 9.38369 6987 ft 256 kts 343°
2026-05-04 19:50 50.27622 9.37627 6978 ft 246 kts 337°
2026-05-04 19:50 50.29002 9.36083 6982 ft 246 kts 306°
2026-05-04 19:50 50.29675 9.33673 6985 ft 243 kts 275°
2026-05-04 19:51 50.29558 9.31085 6997 ft 238 kts 256°
2026-05-04 19:51 50.29188 9.28550 6989 ft 240 kts 254°
2026-05-04 19:51 50.28791 9.26046 6982 ft 240 kts 254°
2026-05-04 19:51 50.28241 9.23631 6722 ft 235 kts 239°
2026-05-04 19:52 50.27368 9.21474 6490 ft 234 kts 234°
2026-05-04 19:52 50.26450 9.19357 6330 ft 231 kts 234°
2026-05-04 19:52 50.25550 9.17295 6070 ft 227 kts 234°
2026-05-04 19:52 50.24650 9.15252 5570 ft 230 kts 234°
2026-05-04 19:53 50.23734 9.13197 5196 ft 235 kts 234°
2026-05-04 19:53 50.22803 9.11124 5086 ft 230 kts 233°
2026-05-04 19:53 50.21889 9.09096 5040 ft 228 kts 233°
2026-05-04 19:53 50.20974 9.07069 5020 ft 230 kts 233°
2026-05-04 19:54 50.20045 9.05013 5022 ft 233 kts 233°
2026-05-04 19:54 50.19114 9.02958 5008 ft 228 kts 233°
2026-05-04 19:54 50.18221 9.00984 4991 ft 217 kts 233°
2026-05-04 19:54 50.17371 8.99100 4994 ft 209 kts 233°
2026-05-04 19:55 50.16561 8.97306 4986 ft 195 kts 233°
2026-05-04 19:55 50.15817 8.95651 4991 ft 180 kts 233°
2026-05-04 19:55 50.15105 8.94065 4993 ft 177 kts 233°
2026-05-04 19:55 50.14396 8.92485 5008 ft 179 kts 233°
2026-05-04 19:56 50.13726 8.90850 5002 ft 179 kts 240°
2026-05-04 19:56 50.13180 8.89100 5002 ft 180 kts 244°
2026-05-04 19:56 50.12852 8.87888 5009 ft 180 kts 246°
2026-05-04 19:56 50.12398 8.86094 5001 ft 181 kts 247°
2026-05-04 19:57 50.11944 8.84231 4747 ft 184 kts 248°
2026-05-04 19:57 50.11501 8.82383 4487 ft 180 kts 248°
2026-05-04 19:57 50.11068 8.80566 4233 ft 178 kts 249°
2026-05-04 19:57 50.10636 8.78753 3987 ft 179 kts 249°
2026-05-04 19:58 50.10204 8.76936 3746 ft 179 kts 249°
2026-05-04 19:58 50.09775 8.75137 3508 ft 176 kts 249°
2026-05-04 19:58 50.09346 8.73340 3238 ft 178 kts 250°
2026-05-04 19:58 50.08917 8.71538 2975 ft 177 kts 250°
2026-05-04 19:59 50.08488 8.69738 2733 ft 177 kts 250°
2026-05-04 19:59 50.08062 8.67949 2494 ft 175 kts 250°
2026-05-04 19:59 50.07646 8.66205 2227 ft 168 kts 251°
2026-05-04 19:59 50.07254 8.64563 1988 ft 155 kts 251°
2026-05-04 20:00 50.06901 8.63087 1803 ft 140 kts 252°
2026-05-04 20:00 50.06572 8.61702 1599 ft 135 kts 252°
2026-05-04 20:00 50.06241 8.60316 1404 ft 138 kts 251°
2026-05-04 20:00 50.05907 8.58915 1204 ft 138 kts 251°
2026-05-04 20:01 50.05574 8.57536 965 ft 135 kts 251°
2026-05-04 20:01 50.05248 8.56176 805 ft 135 kts 252°
2026-05-04 20:01 50.04926 8.54799 588 ft 135 kts 250°
2026-05-04 20:01 50.04597 8.53450 409 ft 133 kts 251°
2026-05-04 20:02 50.04290 8.52155 361 ft 115 kts 250°
2026-05-04 20:02 50.04059 8.51183 359 ft 60 kts 249°
2026-05-04 20:02 50.03950 8.50730 358 ft 36 kts 249°
2026-05-04 20:02 50.03878 8.50484 362 ft 22 kts 240°
2026-05-04 20:03 50.03781 8.50304 364 ft 22 kts 221°
2026-05-04 20:03 50.03683 8.50189 361 ft 13 kts 197°
2026-05-04 20:03 50.03625 8.50255 361 ft 12 kts 90°
2026-05-04 20:03 50.03651 8.50381 359 ft 12 kts 69°
2026-05-04 20:04 50.03698 8.50575 359 ft 22 kts 70°
2026-05-04 20:04 50.03751 8.50798 361 ft 22 kts 70°
2026-05-04 20:04 50.03805 8.51020 359 ft 22 kts 69°
2026-05-04 20:04 50.03855 8.51234 362 ft 17 kts 70°
2026-05-04 20:05 50.03897 8.51409 364 ft 17 kts 69°
2026-05-04 20:05 50.03941 8.51582 362 ft 17 kts 70°
2026-05-04 20:05 50.03980 8.51758 358 ft 17 kts 70°
2026-05-04 20:05 50.04021 8.51930 359 ft 17 kts 70°
2026-05-04 20:06 50.04063 8.52104 357 ft 17 kts 70°
2026-05-04 20:06 50.04104 8.52278 362 ft 17 kts 69°
2026-05-04 20:06 50.04147 8.52451 361 ft 17 kts 69°
2026-05-04 20:06 50.04188 8.52625 364 ft 17 kts 70°
2026-05-04 20:07 50.04230 8.52799 359 ft 17 kts 69°
2026-05-04 20:07 50.04271 8.52973 364 ft 17 kts 68°
2026-05-04 20:07 50.04313 8.53144 361 ft 15 kts 70°
2026-05-04 20:07 50.04349 8.53299 357 ft 15 kts 70°
2026-05-04 20:08 50.04386 8.53453 364 ft 15 kts 72°
2026-05-04 20:08 50.04402 8.53616 356 ft 15 kts 84°
2026-05-04 20:08 50.04413 8.53780 362 ft 15 kts 84°
2026-05-04 20:08 50.04424 8.53943 354 ft 15 kts 84°
2026-05-04 20:09 50.04434 8.54101 357 ft 14 kts 84°
2026-05-04 20:09 50.04444 8.54253 362 ft 14 kts 84°
2026-05-04 20:09 50.04453 8.54401 354 ft 14 kts 85°
2026-05-04 20:09 50.04441 8.54547 364 ft 14 kts 104°
2026-05-04 20:10 50.04394 8.54675 364 ft 14 kts 131°
2026-05-04 20:10 50.04305 8.54776 361 ft 18 kts 155°
2026-05-04 20:10 50.04225 8.54822 356 ft 10 kts 161°
2026-05-04 20:10 50.04165 8.54856 359 ft 9 kts 160°
2026-05-04 20:11 50.04080 8.54905 357 ft 13 kts 160°
2026-05-04 20:11 50.03995 8.54955 363 ft 13 kts 158°
2026-05-04 20:11 50.03911 8.55003 358 ft 12 kts 161°
2026-05-04 20:11 50.03850 8.55082 359 ft 12 kts 99°
2026-05-04 20:12 50.03872 8.55211 365 ft 13 kts 70°
2026-05-04 20:12 50.03902 8.55338 362 ft 13 kts 69°
2026-05-04 20:12 50.03932 8.55465 363 ft 12 kts 69°
2026-05-04 20:12 50.03962 8.55587 359 ft 12 kts 69°
2026-05-04 20:13 50.03989 8.55702 359 ft 10 kts 69°
2026-05-04 20:13 50.04008 8.55781 363 ft 0 kts 70°
2026-05-04 20:14 50.04013 8.55800 365 ft 10 kts 70°
2026-05-04 20:14 50.04027 8.55861 365 ft 0 kts 69°
2026-05-04 20:15 50.04043 8.55930 357 ft 8 kts 69°
2026-05-04 20:16 50.04094 8.55962 359 ft 9 kts 353°
2026-05-04 20:16 50.04155 8.55936 359 ft 10 kts 341°
2026-05-04 20:16 50.04230 8.55940 357 ft 12 kts 26°
2026-05-04 20:16 50.04309 8.55947 361 ft 12 kts 344°
2026-05-04 20:17 50.04386 8.55913 359 ft 12 kts 353°
2026-05-04 20:17 50.04466 8.55928 357 ft 12 kts 16°
2026-05-04 20:17 50.04542 8.55967 360 ft 9 kts 25°
2026-05-04 20:17 50.04573 8.56043 364 ft 8 kts 63°
2026-05-04 20:18 50.04601 8.56162 364 ft 14 kts 70°
2026-05-04 20:18 50.04634 8.56298 362 ft 11 kts 70°
2026-05-04 20:18 50.04659 8.56405 363 ft 11 kts 70°
2026-05-04 20:18 50.04676 8.56506 361 ft 9 kts 88°
2026-05-04 20:19 50.04658 8.56592 360 ft 6 kts 115°
2026-05-04 20:19 50.04644 8.56640 363 ft 2 kts 115°
2026-05-04 20:19 50.04639 8.56656 362 ft 2 kts 115°
2026-05-04 20:19 50.04638 8.56659 361 ft 0 kts 114°